GFSFLT1_500_spd_132.txt.gz
Wind_Speed
29 37 30 28 25 23 20 20 21 21 21 21 20 19 18 16 15 14 13 13 13 13 13 13 11 12 13 13 13 14 14 13 13
18 42 33 31 30 27 24 21 22 23 22 21 20 19 20 18 17 16 14 12 11 10 10 10 11 14 13 12 12 13 12 12 12
20 44 35 32 33 31 29 26 25 23 22 23 22 20 20 20 17 16 16 15 13 13 12 13 13 11 12 12 12 12 12 12 12
16 40 41 36 32 36 34 32 27 26 24 22 21 21 20 18 17 17 19 17 17 16 15 14 13 14 13 13 12 12 13 13 13
9 41 46 41 39 41 41 36 32 30 28 26 24 23 22 21 21 20 19 15 18 19 17 16 15 15 15 14 14 15 14 15 15
7 8 43 50 44 45 42 40 37 35 33 31 29 28 26 24 23 21 21 19 19 19 19 19 19 18 17 16 16 17 18 18 18
11 9 6 37 39 41 42 40 40 39 39 37 34 31 30 28 27 26 25 22 20 19 19 19 19 19 20 18 20 20 21 21 21
9 16 14 16 43 47 44 42 42 42 43 42 39 35 33 33 33 31 29 27 26 25 24 24 24 22 22 22 22 22 22 23 22
14 10 16 16 22 50 50 48 44 44 44 43 41 40 38 37 34 33 31 29 28 27 27 26 27 27 27 24 24 24 24 23 24
21 19 17 20 19 31 53 60 55 52 44 44 43 41 39 37 36 36 34 32 30 29 29 30 31 31 30 29 28 27 28 27 27
26 21 18 21 22 23 20 33 54 53 54 44 42 40 42 39 40 41 39 36 34 30 31 35 34 33 35 35 33 34 33 33 33
27 29 22 19 25 25 15 7 19 60 56 50 47 40 46 42 43 40 43 40 38 39 39 38 39 37 35 36 37 38 38 38 35
26 26 24 24 22 19 26 24 9 28 48 47 53 46 50 46 44 35 34 44 43 41 47 46 43 48 38 42 39 41 38 38 39
28 27 26 26 24 21 18 15 19 16 14 25 59 55 42 50 44 51 44 45 49 48 48 52 41 40 44 47 44 39 38 40 41
35 31 28 24 22 21 20 20 18 18 15 15 17 26 28 25 36 47 46 54 54 51 51 44 42 49 46 44 45 43 40 38 39
30 34 33 30 27 24 22 21 24 21 19 17 17 20 23 22 25 26 28 28 31 28 40 31 32 46 45 43 42 45 48 51 47
21 27 34 34 32 33 33 29 28 26 21 22 22 21 22 24 25 27 27 33 37 33 22 30 30 34 42 44 42 45 44 37 35
17 19 23 31 33 33 28 24 26 30 30 27 28 28 28 30 28 28 30 32 35 43 43 33 23 22 24 27 25 18 18 21 12
17 16 19 23 26 28 30 28 24 25 31 30 30 30 27 28 29 28 28 29 28 27 25 21 22 16 19 25 27 20 22 22 23
22 18 18 18 21 25 26 28 29 28 29 31 32 34 31 30 30 29 30 30 30 28 29 33 30 24 25 21 20 17 28 26 27

GFSFLT1_500_spd_135.txt.gz
Wind_Speed
30 27 25 24 22 22 21 21 21 20 22 22 22 22 21 19 17 16 15 12 13 12 11 11 12 13 13 14 15 15 16 16 15
22 30 28 26 26 27 24 22 22 24 23 23 22 21 21 21 19 17 17 16 14 12 11 11 10 12 12 12 13 13 13 13 13
23 28 39 31 32 32 29 27 25 24 25 25 23 22 21 20 19 18 16 17 17 15 14 13 12 12 12 12 13 13 14 14 15
21 30 27 39 39 36 34 31 28 26 25 26 24 24 22 21 20 18 18 18 16 16 16 15 14 14 14 15 15 15 16 16 15
21 23 31 45 43 38 38 36 33 31 29 28 28 27 26 24 23 21 19 19 17 17 18 17 16 16 15 16 15 15 15 15 16
18 19 26 47 37 35 41 40 39 35 33 32 30 29 30 28 26 25 24 23 20 21 22 20 19 19 19 18 18 18 18 17 17
12 16 18 44 48 26 54 45 44 40 39 37 34 32 30 29 28 28 27 24 23 22 23 22 21 21 20 20 20 19 18 19 19
12 16 17 14 43 52 48 46 46 48 43 41 38 35 33 31 30 29 28 26 26 26 26 26 24 24 24 23 22 20 21 22 21
19 16 14 20 17 36 48 55 51 48 46 44 41 38 37 35 33 31 31 30 29 29 28 27 26 27 27 25 25 23 25 25 26
23 21 17 20 23 26 19 43 52 51 45 46 43 42 39 37 36 35 33 32 31 30 31 31 31 29 30 30 30 27 30 28 29
26 27 21 17 23 25 25 20 48 50 50 46 46 45 44 43 40 38 37 37 34 33 33 34 35 35 34 33 32 31 34 33 32
26 28 31 30 21 25 15 15 21 50 65 55 51 57 48 45 41 43 43 41 38 39 39 39 40 40 35 34 34 32 37 38 38
28 25 32 33 26 28 29 26 25 19 26 63 55 60 54 45 41 46 47 46 44 41 46 44 44 45 43 33 38 37 40 40 40
32 31 27 30 32 29 25 24 24 29 26 15 53 62 54 54 47 46 50 48 48 47 45 45 48 46 41 43 45 47 46 45 43
35 34 33 30 28 25 24 25 24 21 27 33 17 29 60 61 53 57 47 51 49 39 44 45 42 44 50 51 46 41 41 44 45
32 35 38 35 31 27 23 22 23 18 17 25 30 23 23 37 33 54 31 17 36 37 44 47 49 52 49 44 49 44 36 41 47
20 22 31 35 36 33 29 27 26 24 21 20 19 18 16 18 18 17 18 26 25 23 24 32 32 31 43 32 33 37 42 40 44
15 15 21 27 33 35 33 32 31 30 29 24 25 22 22 25 24 26 27 25 27 30 29 28 33 33 34 40 31 34 35 42 42
17 16 14 16 24 29 31 33 31 30 28 27 27 27 28 30 30 30 30 32 33 32 29 27 26 25 26 25 25 25 28 22 20
19 19 17 16 15 19 24 24 27 28 28 28 29 30 31 31 32 33 31 30 28 28 29 28 26 28 23 18 26 27 22 21 19

GFSFLT1_500_spd_138.txt.gz
Wind_Speed
17 24 23 17 19 22 16 18 18 18 18 20 20 20 17 16 15 12 7 7 8 8 7 8 12 14 17 18 18 16 14 11 10
21 26 28 28 28 23 18 24 23 20 20 20 22 21 20 19 17 15 14 14 13 13 11 9 9 11 12 12 13 12 12 13 14
21 22 29 28 27 27 26 24 24 24 23 22 22 23 23 22 21 19 18 17 16 14 14 14 14 13 13 13 13 13 13 15 14
9 19 23 28 28 25 18 26 26 26 26 25 23 23 23 24 24 23 22 20 15 19 16 15 15 18 21 16 16 16 16 17 16
11 21 24 28 29 33 28 30 29 30 28 29 26 25 25 25 24 23 23 21 21 20 20 17 16 17 14 16 17 18 17 17 16
20 23 24 28 30 38 36 39 35 33 32 29 29 28 28 27 27 25 24 21 19 17 18 19 19 20 20 19 19 19 18 17 16
21 24 27 24 32 42 38 46 37 38 36 35 34 31 30 29 28 27 26 24 22 22 23 22 21 21 21 21 21 21 19 19 20
23 19 22 26 25 40 56 47 43 37 37 37 40 36 34 32 30 29 29 27 25 25 24 23 23 23 22 22 21 22 21 21 21
24 20 17 18 23 35 39 61 55 42 42 32 46 42 36 35 34 32 30 29 28 26 26 27 26 25 25 25 24 24 22 25 22
23 22 25 19 23 20 32 21 47 37 42 38 27 29 34 37 36 35 33 32 31 30 30 30 30 29 29 29 29 28 28 28 28
26 27 29 32 28 19 19 27 21 46 51 49 43 39 38 42 40 39 36 35 33 34 33 33 32 33 33 34 32 33 33 34 34
27 28 30 32 32 29 26 13 15 20 34 46 53 52 45 46 43 42 39 38 37 38 38 37 37 36 37 35 34 33 36 38 36
26 28 33 35 32 29 31 28 27 18 19 15 32 59 57 50 46 42 41 42 44 45 44 42 42 42 42 41 39 40 44 41 37
29 31 31 36 35 29 29 28 29 23 28 31 15 29 53 53 49 50 49 51 51 51 48 48 47 43 45 45 45 45 43 43 41
33 31 34 35 37 34 31 32 30 28 29 32 32 30 22 53 58 51 53 49 51 53 43 48 49 49 48 42 43 48 50 47 47
30 35 35 36 38 37 35 32 34 27 26 24 30 35 26 9 27 60 58 55 56 50 47 49 42 47 52 45 45 43 47 48 53
25 28 31 35 38 40 37 35 34 28 25 27 23 31 35 32 20 20 44 47 44 46 37 35 31 39 41 38 30 34 38 41 42
21 24 25 25 28 34 35 37 35 32 29 29 30 29 27 26 29 27 18 17 14 14 16 18 23 25 28 27 26 28 28 31 30
20 20 20 18 21 25 27 32 33 33 33 32 31 28 28 26 29 26 24 22 23 24 25 27 33 33 32 29 26 25 27 28 28
18 19 18 17 17 17 18 23 24 28 31 32 30 29 29 29 27 26 26 27 29 30 29 30 31 31 31 30 27 24 27 28 30

GFSFLT1_500_spd_141.txt.gz
Wind_Speed
12 17 20 16 18 23 20 15 17 14 15 16 15 14 13 11 11 12 11 10 9 10 11 13 12 15 17 17 16 15 14 11 10
17 17 22 21 20 23 16 18 17 16 16 17 17 17 14 13 13 11 12 11 10 8 9 9 12 12 16 14 14 14 13 11 10
22 23 21 21 25 20 21 21 19 17 18 18 19 19 18 17 17 16 15 15 13 13 14 12 10 11 13 13 12 12 12 12 9
27 26 28 21 27 24 24 22 19 19 20 20 21 21 22 21 20 19 18 16 15 15 15 13 14 14 14 14 13 12 12 12 12
19 21 26 25 31 28 29 28 27 24 23 22 23 24 24 24 24 22 21 21 19 19 18 17 17 16 16 19 19 16 14 15 15
34 24 26 23 25 29 27 33 30 28 27 28 28 27 28 26 25 23 24 23 22 21 20 20 20 19 19 19 17 19 17 18 16
9 15 18 18 18 29 33 31 33 38 35 31 31 31 30 28 27 26 26 25 23 21 21 21 21 20 20 19 20 19 19 19 18
12 14 17 19 21 25 30 29 34 46 35 36 31 36 32 32 31 29 27 26 25 25 25 23 22 23 23 21 21 20 21 21 20
19 20 21 22 23 25 26 25 40 43 34 44 37 37 37 38 34 33 30 29 29 27 27 27 26 25 25 24 22 22 22 23 23
18 22 23 24 21 15 24 28 42 43 52 37 41 41 29 44 39 35 33 31 31 31 30 29 28 28 27 27 26 25 25 26 27
20 18 21 22 19 22 23 18 20 26 26 24 38 48 48 46 40 37 38 35 35 34 33 31 32 32 32 32 30 30 30 31 32
26 30 20 22 25 25 25 24 27 21 19 34 33 51 35 31 34 33 43 39 38 35 34 34 35 35 33 34 35 36 36 35 31
17 24 25 24 27 27 26 25 28 27 26 17 24 34 42 46 47 38 31 34 37 38 37 37 37 37 37 38 37 37 38 38 37
21 22 26 31 29 30 27 24 28 26 25 28 28 20 26 19 37 49 43 43 41 41 40 42 40 42 43 41 42 41 43 44 42
24 29 32 32 31 31 30 28 27 27 24 22 25 26 28 26 17 27 44 41 42 44 43 45 46 48 46 48 48 47 48 48 47
23 29 31 34 32 32 32 31 30 29 27 22 22 23 29 35 23 9 29 32 50 49 48 48 50 50 46 43 44 47 49 53 52
22 24 27 31 30 33 35 34 33 32 30 28 25 24 24 29 28 23 25 27 38 39 44 53 48 51 44 50 49 50 49 46 49
23 23 23 26 28 27 30 33 35 35 32 33 29 29 29 26 28 29 31 24 12 15 24 41 40 38 32 28 26 29 24 27 32
20 21 22 22 23 25 24 26 29 32 34 36 34 32 32 31 25 23 24 23 21 19 12 12 10 14 15 20 22 24 25 28 27
18 18 19 20 22 22 22 21 22 25 28 34 36 35 33 31 30 27 24 26 24 22 17 20 21 25 25 27 30 30 31 30 29